Regional Weather Roundup
Issued by NWS Newport/Morehead, NC

Current Version | Previous Version | Text Only | Print | Product List | Glossary Off
Versions: 1 2 3 4 5 6 7 8 9 10 11 12 13 14 15 16 17 18 19 20 21 22 23 24 25 26 27 28 29 30 31 32 33 34 35 36 37 38 39 40 41 42 43 44 45 46 47 48 49 50
000 ASUS42 KMHX 191622 RWRMHX WEATHER ROUNDUP FOR EASTERN NORTH CAROLINA NATIONAL WEATHER SERVICE NEWPORT/MOREHEAD CITY NC 1200 PM EDT FRI SEP 19 2014 NOTE: "FAIR" INDICATES FEW OR NO CLOUDS BELOW 12,000 FEET WITH NO SIGNIFICANT WEATHER AND/OR OBSTRUCTIONS TO VISIBILITY NCZ015>017-031-032-045>047-102-103-191700- NORTH COAST CITY SKY/WX TMP DP RH WIND PRES REMARKS EDENTON MOSUNNY 77 61 57 E12G21 30.21S ELIZABETH CITY MOSUNNY 77 59 53 E13 30.22R KITTY HAWK MOSUNNY 76 57 52 E9 30.20S MANTEO MOSUNNY 76 59 55 NE14 30.21S $$ NCZ045>047-081-094-103-104-191700- CENTRAL COAST CITY SKY/WX TMP DP RH WIND PRES REMARKS FRISCO PTSUNNY 76 63 64 NE13G25 30.17S SWANQUARTER N/A 77 N/A N/A NE8G20 30.15S $$ NCZ095-097-098-100-101-191700- SOUTHERN COAST CITY SKY/WX TMP DP RH WIND PRES REMARKS BEAUFORT PTSUNNY 80 64 58 NE12G21 30.15S CEDAR ISLAND N/A 75 N/A N/A NE17G26 30.21S JACKSONVILLE MOSUNNY 78 63 59 E16 30.15S NEWPORT NOT AVBL PINEY ISLAND PTSUNNY 79 62 56 NE17G25 30.17R WILMINGTON PTSUNNY 77 66 68 E16G23 30.13S $$ NCZ011>013-027>030-043-044-078>080-089-090>093-098-191700- COASTAL PLAIN CITY SKY/WX TMP DP RH WIND PRES REMARKS AHOSKIE MOSUNNY 74 59 59 E7 30.22R CLINTON MOSUNNY 79 60 52 E8 30.16S ELIZABETHTOWN MOSUNNY 78 57 48 E9 30.15S GOLDSBORO MOSUNNY 78 63 58 E12 30.16S GREENVILLE SUNNY 77 61 57 NE12 30.20S HAVELOCK LGT RAIN 79 61 53 E16 30.17S KENANSVILLE MOSUNNY 79 56 45 E6 30.17S KINSTON MOSUNNY 79 55 44 NE16 30.19R NEW BERN MOSUNNY 79 61 53 E13 30.18S RICHLANDS MOSUNNY 79 61 53 E14 30.16S ROANOKE RAPIDS NOT AVBL ROCKY MOUNT SUNNY 77 57 50 E8 30.20R WASHINGTON SUNNY 77 60 55 NE12G20 30.20R WHITEVILLE PTSUNNY 77 62 58 E9 30.13S $$ AMZ130-135-150-152-154-156-158-170-250-252-270-ANZ085-086-088-633-658-670-191700- MARINE OBSERVATIONS STATION/POSITION TIME TEMP WIND PRES WAVE SWELL AIR SEA DIR/SP/G HT/PER HT/PER (UTC) (F) (DEG/KT/KT) (MB) (FT/S) (FT/S) CHESAPEAKE LIGHT 1600 71 80/ 9/ 10 1024.4 BUOY 44014 1600 73 76 60/ 12/ 16 1022.9 4/ 7 3/ 7 DUCK 1600 73 75 60/ 12/ 15 1022.4 2E DUCK 1600 N/A 3/ 7 2/11 OREGON INLET 1600 74 73 40/ 15/ 18 1022.4 BUOY 44095 1600 75 N/A 5/ 5 2/11 20E OREGON INLET NOT AVBL HATTERAS CG 1600 75 75 40/ 13/ 18 1022.1 DIAMOND BUOY 1600 78 50/ 17/ 23 1020.9 6/ 7 CAPE LOOKOUT 1600 77 50/ 22/ 25 1020.7 BEAUFORT LAB 1600 77 77 60/ 14/ 19 1020.5 30 SE NEW RIVER 1600 77 82 60/ 21/ 25 1020.1 5/ 5 2/ 9 5 SE WRIGHTSVILL 1600 74 80 60/ 19/ 23 N/A BUOY 41002 1515 79 82 70/ 16/ 17 1018.8 4/10 2/10 BUOY 41004 1600 73 82 80/ 16/ 19 1018.0 5/ 6 2/ 8 $$

USA.gov is the U.S. government's official web portal to all federal, state and local government web resources and services.